Date String (YYYY-MM-DD hh:mm:ss) UTC,Instrument flags,Ambient pressure (hPa),Sample flow (lpm),Bypass flow (lpm),Sample temperature (°C),Ambient temperature (°C),ASC tube jacket temperature (°C),LED temperature (°C),Box temperature (°C),Sample RH (%),Span deviation,Mass concentration (μg/m³),Mass concentration (μg/m³),Mass concentration (μg/m³)
DateTimeUTC,F1_M11,P_M11,Q1_M11,Q2_M11,T1_M11,T2_M11,T3_M11,T4_M11,T5_M11,U1_M11,ZSPAN_M11,X0_M11,X2_M11,X1_M11
2022-05-08 20:00:00,,0811.3,4.99,0.00,28.6,28.0,00.0,37.5,30.5,16.5,0000.0,0028.14,0010.13,0004.23
2022-05-08 20:01:00,,0811.2,5.00,0.00,28.6,28.0,00.0,37.5,30.5,16.8,0000.0,0029.19,0010.30,0004.24
2022-05-08 20:02:00,,0811.3,5.01,0.00,28.6,28.0,00.0,37.5,30.5,17.0,0000.0,0029.73,0010.23,0004.24
2022-05-08 20:03:00,,0811.2,5.00,0.00,28.7,28.0,00.0,37.5,30.5,16.6,0005.6,0029.28,0010.13,0004.25
2022-05-08 20:04:00,,0811.1,5.00,0.00,28.7,28.0,00.0,37.5,30.5,16.4,0001.4,0029.10,0010.10,0004.24
2022-05-08 20:05:00,,0811.1,5.00,0.00,28.7,28.0,00.0,37.5,30.5,16.6,0004.0,0028.96,0010.06,0004.23
2022-05-08 20:06:00,,0811.0,5.00,0.00,28.7,28.0,00.0,37.5,30.6,16.8,0004.1,0030.60,0010.11,0004.24
2022-05-08 20:07:00,,0811.0,5.00,0.00,28.7,28.1,00.0,37.6,30.6,16.8,0000.5,0030.45,0010.06,0004.23
2022-05-08 20:08:00,,0811.0,5.00,0.00,28.7,28.1,00.0,37.6,30.6,16.2,0000.0,0030.93,0010.11,0004.23
2022-05-08 20:09:00,,0811.0,5.01,0.00,28.8,28.1,00.0,37.6,30.6,16.7,0000.0,0030.39,0010.12,0004.23
2022-05-08 20:10:00,,0811.0,5.01,0.00,28.8,28.1,00.0,37.6,30.6,16.8,0000.0,0029.93,0009.95,0004.21
2022-05-08 20:11:00,,0810.9,5.00,0.00,28.8,28.2,00.0,37.6,30.6,16.7,0000.0,0029.41,0009.81,0004.22
2022-05-08 20:12:00,,0810.9,4.99,0.00,28.8,28.2,00.0,37.6,30.7,16.6,0000.0,0029.29,0009.78,0004.22
2022-05-08 20:13:00,,0810.8,4.99,0.00,28.8,28.2,00.0,37.7,30.7,16.7,0000.0,0029.27,0009.91,0004.22
2022-05-08 20:14:00,,0810.8,4.99,0.00,28.8,28.2,00.0,37.7,30.7,16.7,0000.0,0029.99,0009.95,0004.21
2022-05-08 20:15:00,,0810.7,5.00,0.00,28.9,28.2,00.0,37.7,30.7,16.4,0000.0,0030.24,0009.96,0004.21
2022-05-08 20:16:00,,0810.7,4.99,0.00,28.9,28.2,00.0,37.7,30.7,16.5,0000.0,0030.06,0010.00,0004.22
2022-05-08 20:17:00,,0810.7,5.00,0.00,28.9,28.2,00.0,37.7,30.7,16.6,0000.0,0028.64,0010.07,0004.23
2022-05-08 20:18:00,,0810.8,5.00,0.00,28.9,28.3,00.0,37.7,30.8,16.3,0000.0,0028.74,0010.10,0004.23
2022-05-08 20:19:00,,0810.9,5.00,0.00,28.9,28.3,00.0,37.7,30.8,16.3,0000.0,0029.15,0010.17,0004.23
2022-05-08 20:20:00,,0810.9,5.00,0.00,28.9,28.3,00.0,37.8,30.8,16.2,0000.0,0029.07,0010.19,0004.24
2022-05-08 20:21:00,,0810.8,5.00,0.00,28.9,28.3,00.0,37.8,30.8,16.3,0000.0,0029.86,0010.31,0004.24
2022-05-08 20:22:00,,0810.7,4.99,0.00,28.9,28.3,00.0,37.8,30.8,16.5,0000.0,0030.00,0010.42,0004.24
2022-05-08 20:23:00,,0810.6,4.99,0.00,28.9,28.3,00.0,37.8,30.8,16.8,0000.0,0029.12,0010.32,0004.23
2022-05-08 20:24:00,,0810.6,5.00,0.00,29.0,28.3,00.0,37.8,30.8,16.6,0000.0,0028.71,0010.34,0004.22
2022-05-08 20:25:00,,0810.6,4.99,0.00,29.0,28.3,00.0,37.8,30.8,16.3,0000.0,0029.01,0010.29,0004.21
2022-05-08 20:26:00,,0810.6,5.01,0.00,29.0,28.3,00.0,37.8,30.8,16.2,0000.0,0029.10,0010.34,0004.22
2022-05-08 20:27:00,,0810.6,5.00,0.00,29.0,28.3,00.0,37.8,30.8,16.1,0000.0,0030.29,0010.29,0004.20
2022-05-08 20:28:00,,0810.6,4.99,0.00,29.0,28.3,00.0,37.8,30.8,16.1,0000.0,0030.36,0010.17,0004.17
2022-05-08 20:29:00,,0810.6,5.00,0.00,29.0,28.3,00.0,37.8,30.8,16.2,0000.0,0029.85,0010.03,0004.17
2022-05-08 20:30:00,,0810.6,5.01,0.00,29.0,28.3,00.0,37.9,30.8,16.1,0000.3,0029.45,0009.98,0004.18
2022-05-08 20:31:00,,0810.6,5.00,0.00,29.0,28.3,00.0,37.9,30.8,16.1,0000.4,0028.85,0009.86,0004.17
2022-05-08 20:32:00,,0810.5,4.99,0.00,29.0,28.3,00.0,37.9,30.8,16.2,0000.7,0028.06,0009.83,0004.17
2022-05-08 20:33:00,,0810.5,5.00,0.00,29.0,28.3,00.0,37.9,30.8,16.0,0000.0,0028.09,0009.84,0004.17
2022-05-08 20:34:00,,0810.5,5.01,0.00,29.0,28.3,00.0,37.9,30.8,16.0,0000.3,0028.20,0009.74,0004.15
2022-05-08 20:35:00,,0810.3,5.00,0.00,29.0,28.3,00.0,37.9,30.8,16.1,0001.4,0028.41,0009.63,0004.15
2022-05-08 20:36:00,,0810.3,5.01,0.00,29.0,28.4,00.0,37.9,30.9,15.9,0000.4,0027.53,0009.61,0004.16
2022-05-08 20:37:00,,0810.3,5.00,0.00,29.0,28.4,00.0,37.9,30.9,16.0,0000.0,0027.22,0009.54,0004.15
2022-05-08 20:38:00,,0810.2,5.00,0.00,29.1,28.4,00.0,37.9,30.9,16.2,0000.0,0027.42,0009.58,0004.16
2022-05-08 20:39:00,,0810.2,4.99,0.00,29.1,28.4,00.0,37.9,30.9,16.2,0000.0,0027.91,0009.60,0004.17
2022-05-08 20:40:00,,0810.1,5.00,0.00,29.1,28.5,00.0,38.0,31.0,16.3,0000.0,0027.99,0009.62,0004.17
2022-05-08 20:41:00,,0810.0,5.00,0.00,29.1,28.5,00.0,38.0,31.0,16.1,0000.0,0028.09,0009.76,0004.16
2022-05-08 20:42:00,,0810.1,5.00,0.00,29.1,28.5,00.0,38.0,31.0,16.2,0000.0,0028.84,0009.93,0004.18
2022-05-08 20:43:00,,0810.2,5.01,0.00,29.1,28.5,00.0,38.0,31.0,16.2,0000.0,0029.80,0009.90,0004.17
2022-05-08 20:44:00,,0810.2,5.01,0.00,29.1,28.5,00.0,38.0,31.0,16.5,0000.0,0030.75,0009.84,0004.17
2022-05-08 20:45:00,,0810.2,4.99,0.00,29.1,28.5,00.0,38.0,31.0,16.5,0000.0,0031.29,0009.91,0004.17
2022-05-08 20:46:00,,0810.2,5.00,0.00,29.2,28.5,00.0,38.0,31.0,16.2,0000.0,0031.06,0009.90,0004.18
2022-05-08 20:47:00,,0810.2,4.99,0.00,29.2,28.5,00.0,38.0,31.0,16.1,0000.0,0031.20,0009.89,0004.17
2022-05-08 20:48:00,,0810.2,5.00,0.00,29.2,28.5,00.0,38.0,31.0,16.1,0000.0,0031.63,0009.97,0004.17
2022-05-08 20:49:00,,0810.1,5.00,0.00,29.2,28.5,00.0,38.0,31.0,16.2,0000.0,0031.21,0009.93,0004.17
2022-05-08 20:50:00,,0810.0,5.00,0.00,29.2,28.5,00.0,38.1,31.0,16.0,0000.0,0030.65,0009.89,0004.17
2022-05-08 20:51:00,,0810.0,5.00,0.00,29.2,28.6,00.0,38.1,31.0,16.1,0000.0,0031.01,0009.91,0004.17
2022-05-08 20:52:00,,0810.0,4.99,0.00,29.2,28.6,00.0,38.1,31.0,15.9,0000.0,0031.38,0009.77,0004.16
2022-05-08 20:53:00,,0810.0,5.01,0.00,29.2,28.6,00.0,38.1,31.1,15.8,0000.0,0030.57,0009.64,0004.13
2022-05-08 20:54:00,,0809.9,5.00,0.00,29.2,28.6,00.0,38.1,31.1,16.2,0000.0,0029.51,0009.59,0004.12
2022-05-08 20:55:00,,0810.0,4.99,0.00,29.2,28.6,00.0,38.1,31.1,16.2,0000.0,0029.05,0009.58,0004.11
2022-05-08 20:56:00,,0809.8,5.00,0.00,29.3,28.6,00.0,38.1,31.1,16.1,0000.0,0029.29,0009.48,0004.10
2022-05-08 20:57:00,,0809.9,5.00,0.00,29.3,28.7,00.0,38.1,31.1,16.0,0000.0,0028.70,0009.45,0004.09
2022-05-08 20:58:00,,0809.9,4.99,0.00,29.3,28.7,00.0,38.1,31.2,15.9,0000.0,0029.36,0009.49,0004.08
2022-05-08 20:59:00,,0809.9,5.00,0.00,29.3,28.7,00.0,38.2,31.2,16.3,0000.0,0029.50,0009.47,0004.09
